Location: Unspecified
(0.0000°N, 0.0000°E)
Time: 20:59:38
(UTC+00:00)

NOSS 2-2 (D) - Visible Passes

Search period start: 24 January 2022 00:00
Search period end: 03 February 2022 00:00
Orbit: 445 x 1760 km, 63.3° (Epoch: 20 January)

Date Brightness Start Highest point End Pass type
(mag) Time Alt. Az. Time Alt. Az. Time Alt. Az.
24 Jan 3.6 19:31:36 10° SSW 19:36:49 63° ESE 19:37:40 50° ENE visible
25 Jan 4.9 18:46:33 10° S 18:50:55 25° ESE 18:53:51 13° ENE visible
25 Jan 6.4 20:39:57 10° W 20:40:56 11° WNW 20:41:16 11° WNW visible
26 Jan 5.3 19:51:21 10° SW 19:55:35 28° WNW 19:57:29 20° NNW visible
27 Jan 7.4 05:33:10 10° NNE 05:38:11 17° ENE 05:43:53 10° ESE visible
27 Jan 3.6 19:04:55 10° SSW 19:10:06 79° WNW 19:13:45 11° NNE visible
29 Jan 6.0 19:25:31 10° WSW 19:28:41 18° WNW 19:31:23 10° NNW visible
30 Jan 7.2 05:05:11 10° NNE 05:11:23 24° ENE 05:18:42 10° ESE visible
30 Jan 4.6 18:38:25 10° SW 18:43:17 47° WNW 18:47:00 10° N visible
31 Jan 7.7 04:22:59 10° NE 04:25:48 12° ENE 04:28:49 10° E visible
01 Feb 6.1 05:22:21 10° N 05:30:11 56° ENE 05:40:04 10° SE visible
01 Feb 6.7 19:00:50 10° W 19:01:46 11° WNW 19:02:39 10° WNW visible
02 Feb 6.9 04:37:37 10° N 04:44:34 32° ENE 04:53:02 10° SE visible
